Location: Drignac
(45.1667°N, 2.0333°E)
Time: 07:27:31
(UTC+00:00)

BREEZE-M DEB (TANK) - Pass Details

Date: 29 March 2020
Orbit: 320 x 11934 km, 49.7° (Epoch: 02 June)

Event Time Altitude Azimuth Distance (km) Brightness Sun altitude
Rises 19:40:34 0° 281° (W) 6,034 10.4 -15.2°
Reaches altitude 10° 19:46:11 10° 286° (WNW) 3,622 8.9 -16.1°
Maximum altitude 19:53:08 50° 1° (N) 794 4.3 -17.2°
Enters shadow 19:54:36 28° 64° (ENE) 966 4.3 -17.5°
